Vertical_Velocity
-1 -1 -1 -0 -2 -3 -3 -2 -0 8 -1 -1 -2 3 -4 -0 0 -0 4 3 2 4 5 1 1 3 -3 2 7 9 2 3 4 -1 1 -4 -1 -3 -2 -3 -2 0 -4
-2 -2 -5 -1 -3 -4 -3 -5 -1 2 1 -6 4 -1 4 0 1 1 5 7 6 6 1 -3 -1 -3 1 1 -1 2 -1 4 -4 -2 12 -6 -2 -4 1 2 0 1 -1
-5 -7 -6 -6 -5 -4 -3 -6 -4 -2 -0 3 0 -4 -2 0 -4 -6 -1 -0 2 -3 -2 3 -1 0 1 2 -0 5 4 0 8 -9 3 -2 -13 5 -0 2 -2 2 -2
-3 -1 -4 -2 -3 -2 -4 1 -1 -2 -1 7 -5 0 1 -4 -4 8 7 2 3 1 2 3 3 1 -0 1 2 2 4 11 -3 -7 4 5 -3 -11 -4 -1 -4 -4 -3
-3 -2 -2 -2 -0 -2 -1 1 -1 1 4 2 -2 2 -2 -2 6 3 0 2 0 4 3 2 6 -0 -1 -1 -1 1 3 3 -0 3 -11 27 -6 -7 1 -5 2 1 1
3 3 -2 -2 -3 -1 0 1 -1 4 1 -3 -2 -4 -5 -2 5 1 0 1 1 3 1 7 -0 5 3 1 1 2 -2 -0 3 5 2 -5 6 -5 6 -7 -3 6 0
-8 -3 2 1 4 3 1 2 4 5 3 2 2 1 -2 6 5 1 -2 6 1 -2 -5 6 0 0 3 1 3 -0 -0 3 -1 3 0 1 -4 6 4 16 1 -1 6
2 -3 -0 -3 -1 2 -3 -5 -5 -1 -2 -1 -1 1 -1 -3 0 6 -0 3 2 -4 12 -1 0 5 5 2 4 0 3 -2 -1 -2 -1 2 2 10 -3 16 -1 3 -2
-7 -2 -1 3 5 -0 7 -3 5 2 3 5 -1 -8 1 8 4 4 5 -1 4 1 3 3 2 4 2 2 1 1 -2 -3 1 2 1 -2 1 0 4 41 0 19 -10
-0 -3 -4 -4 2 -2 -0 4 -2 -2 0 -5 -6 -5 -2 -0 5 8 -4 -3 3 1 -4 0 2 7 3 -2 0 -0 4 -2 -2 -0 2 0 2 -2 -1 3 -0 9 4
-1 -1 -1 -3 -4 -1 4 -1 -9 8 -2 -6 -6 0 2 2 4 5 6 2 4 3 4 3 2 4 4 2 -1 2 1 2 4 4 6 7 9 -3 -7 -11 -1 -7 0
-4 -1 -2 -5 -3 -3 -3 -3 -4 -7 -4 -4 -1 3 3 2 -1 -2 -4 -5 -2 -1 2 1 1 -1 4 2 -0 0 1 -3 2 2 -0 4 -8 1 1 15 19 7 22
-3 -3 -5 -8 -10 -6 -2 -4 -0 4 -10 3 3 5 7 2 4 0 -1 2 2 -1 2 0 3 -0 -1 -2 2 2 3 0 -4 2 -0 6 1 1 -1 0 4 22 -3
-6 -5 2 -3 -3 -7 -5 -0 4 3 5 -0 5 3 5 -1 -4 1 -1 -1 -0 -2 0 -0 1 1 2 1 1 1 1 3 4 -2 -4 -0 1 9 2 0 -3 -2 -9
0 -4 -4 -6 -1 -1 3 6 2 2 3 7 4 -0 -2 3 5 0 1 2 -0 -1 -1 0 -0 -0 -1 3 1 -0 -1 -3 -1 -1 -2 -3 -4 -2 1 2 3 -0 -2
1 -1 0 -2 0 -1 -4 -4 3 4 3 9 7 6 -1 -1 -0 3 4 3 3 4 4 -0 -0 -3 -3 -5 -3 -2 -5 0 -0 -0 -1 1 4 -3 0 1 5 3 3
-1 -0 4 -3 -1 -2 -0 1 3 -2 3 11 6 5 -0 -5 -2 -2 -6 -6 -4 2 1 -1 2 0 -2 -6 -4 -2 -3 2 1 6 4 9 -1 -1 1 1 1 -0 1
-1 0 2 2 0 -0 2 -1 4 -3 -1 5 6 2 4 13 -3 2 3 2 3 1 0 -1 1 5 -10 0 8 16 12 8 1 2 -8 14 -5 -7 1 5 10 3 -9
-1 -1 -0 -1 -1 0 0 1 2 3 1 1 2 -0 3 7 4 7 16 7 9 5 12 8 1 -0 -5 -3 2 -4 -5 -13 15 -2 17 4 -6 -0 2 14 3 21 8
0 -0 -1 -1 -3 1 1 -1 0 -0 4 1 1 1 6 5 6 9 2 4 7 -5 11 3 16 14 6 2 -4 -6 14 2 3 3 -10 17 0 -3 7 -4 -7 -1 1
0 1 -2 -2 0 -1 0 -1 -1 0 2 1 -1 1 3 1 5 5 8 9 6 7 3 8 -1 -1 1 -1 -3 -6 0 6 2 11 13 1 -4 1 2 3 3 1 2
-1 -1 2 0 -1 -2 -2 -2 -2 -2 -2 0 1 -0 0 0 2 2 1 1 2 2 2 3 2 2 1 -0 -1 -1 -1 4 2 1 0 2 -0 -0 -1 -1 -2 1 1
-1 -1 -3 -0 0 1 1 -0 -2 2 -1 -1 -1 -2 -0 0 0 -2 0 2 2 1 2 0 1 1 2 1 -1 -3 -1 -2 -2 -3 -7 -3 -2 1 2 1 2 0 1
-1 -2 -1 -1 -1 -1 1 -1 -2 -1 -0 2 3 2 -1 -2 -2 -2 0 -0 -0 0 1 2 2 2 1 0 1 1 1 -1 -1 -1 -1 -0 -1 0 0 -1 0 -0 -1
2 1 -1 -2 -0 1 0 -1 -0 -1 -4 -4 -1 1 1 -0 -1 -0 1 -0 -2 -1 -1 -1 -0 -1 -1 -0 -0 1 1 2 1 0 -0 -1 -0 1 1 0 -3 -0 -2
0 2 3 2 -1 -3 1 2 1 -2 -3 -2 -4 -4 -1 -2 -2 1 1 1 0 -1 -1 1 0 -0 0 1 2 2 2 1 2 1 1 3 2 -6 -11 -11 -6 -7 -5
Height
3069 3067 3063 3060 3056 3054 3052 3053 3054 3055 3055 3056 3057 3059 3062 3068 3073 3077 3081 3086 3092 3098 3102 3105 3112 3116 3119 3123 3127 3130 3131 3135 3136 3137 3140 3141 3144 3144 3145 3147 3149 3150 3152
3062 3058 3053 3050 3046 3043 3042 3041 3041 3041 3042 3042 3044 3045 3048 3051 3056 3062 3067 3072 3077 3083 3087 3091 3101 3107 3110 3112 3116 3120 3123 3125 3127 3130 3134 3133 3135 3137 3139 3142 3144 3146 3147
3048 3043 3038 3035 3032 3030 3029 3028 3027 3028 3028 3029 3030 3032 3034 3034 3037 3043 3047 3054 3061 3068 3075 3082 3087 3094 3097 3100 3105 3110 3113 3117 3119 3121 3124 3125 3124 3130 3133 3136 3138 3140 3141
3037 3031 3027 3022 3018 3015 3014 3012 3012 3013 3014 3015 3016 3018 3021 3022 3027 3030 3035 3041 3047 3052 3059 3067 3072 3077 3083 3087 3092 3097 3102 3107 3107 3113 3116 3119 3119 3120 3126 3129 3131 3133 3135
3026 3021 3016 3010 3005 3004 3002 3001 3001 3002 3003 3003 3005 3006 3007 3011 3015 3015 3020 3026 3032 3039 3045 3052 3059 3065 3072 3077 3082 3086 3091 3096 3099 3102 3107 3109 3111 3115 3118 3120 3124 3124 3128
3016 3009 3006 3001 2997 2996 2994 2994 2995 2996 2996 2997 2997 2996 2996 2999 3000 3002 3006 3012 3020 3026 3032 3039 3046 3053 3060 3066 3072 3077 3081 3085 3090 3093 3097 3101 3104 3106 3110 3111 3115 3116 3120
3012 3005 2999 2995 2992 2990 2989 2989 2989 2987 2986 2985 2985 2985 2984 2985 2987 2990 2995 3002 3009 3016 3021 3026 3033 3041 3047 3054 3061 3066 3069 3074 3080 3084 3087 3092 3095 3100 3103 3105 3105 3108 3112
3006 2999 2993 2989 2987 2986 2985 2982 2980 2978 2976 2974 2973 2970 2969 2971 2974 2979 2985 2991 3000 3007 3014 3019 3024 3031 3037 3043 3050 3054 3060 3063 3069 3075 3077 3081 3085 3090 3092 3094 3100 3100 3099
3002 2996 2993 2989 2986 2983 2981 2977 2974 2971 2969 2965 2958 2954 2951 2954 2961 2969 2975 2984 2992 2998 3004 3010 3015 3023 3028 3033 3039 3044 3049 3054 3058 3064 3068 3071 3073 3079 3084 3083 3089 3091 3093
3005 2998 2991 2988 2983 2980 2975 2972 2968 2964 2959 2956 2952 2948 2945 2948 2953 2960 2967 2977 2985 2991 2996 3001 3007 3013 3018 3024 3030 3035 3041 3045 3049 3054 3059 3060 3063 3066 3071 3074 3080 3081 3083
3006 2998 2992 2986 2978 2970 2965 2963 2962 2958 2955 2952 2947 2943 2941 2943 2945 2952 2961 2971 2980 2986 2991 2995 3000 3005 3010 3016 3021 3026 3031 3036 3040 3046 3048 3051 3054 3057 3061 3066 3070 3071 3071
3010 3001 2994 2986 2976 2963 2956 2954 2955 2954 2951 2948 2944 2940 2938 2939 2942 2948 2958 2968 2975 2980 2985 2990 2994 2997 3001 3006 3011 3016 3021 3025 3030 3034 3039 3042 3047 3049 3050 3053 3057 3061 3063
3012 3006 2998 2988 2978 2967 2955 2951 2949 2948 2945 2945 2942 2940 2939 2941 2943 2948 2954 2961 2968 2974 2979 2983 2987 2991 2994 2999 3004 3009 3013 3016 3021 3025 3030 3034 3037 3039 3044 3046 3049 3051 3055
3013 3007 3001 2993 2983 2973 2963 2955 2948 2943 2939 2939 2940 2939 2938 2939 2943 2948 2954 2959 2965 2969 2973 2977 2981 2984 2989 2993 2997 3000 3004 3008 3011 3016 3020 3024 3026 3029 3034 3037 3041 3042 3047
3014 3008 3001 2996 2987 2979 2970 2961 2953 2944 2937 2935 2934 2934 2936 2938 2941 2946 2951 2955 2960 2964 2968 2971 2974 2978 2980 2985 2990 2994 2998 3001 3005 3008 3012 3015 3019 3022 3024 3027 3031 3035 3036
3014 3008 3002 2997 2990 2983 2975 2967 2958 2950 2940 2931 2924 2922 2927 2931 2937 2942 2948 2953 2957 2961 2963 2965 2968 2971 2974 2978 2983 2987 2990 2994 2997 3001 3004 3006 3009 3011 3014 3016 3019 3024 3025
3013 3008 3001 2996 2990 2984 2976 2970 2962 2956 2946 2933 2921 2918 2919 2927 2934 2940 2944 2947 2951 2954 2957 2960 2962 2963 2965 2970 2974 2979 2982 2986 2990 2993 2996 2998 3000 3003 3004 3007 3011 3014 3016
3012 3006 3001 2996 2991 2985 2979 2974 2966 2961 2954 2945 2935 2930 2928 2931 2933 2938 2942 2947 2950 2952 2953 2953 2954 2955 2956 2960 2966 2970 2974 2978 2982 2986 2988 2990 2991 2993 2996 2998 3001 3004 3006
3012 3006 3000 2996 2991 2986 2980 2976 2971 2964 2961 2956 2949 2944 2942 2940 2939 2942 2945 2947 2946 2948 2947 2947 2946 2947 2949 2954 2959 2966 2970 2973 2974 2981 2976 2982 2982 2986 2989 2987 2990 2994 2996
3012 3007 3002 2997 2993 2988 2983 2978 2974 2969 2966 2962 2957 2953 2952 2951 2950 2950 2949 2950 2950 2950 2950 2948 2949 2952 2954 2955 2960 2963 2964 2969 2971 2974 2976 2979 2980 2982 2983 2984 2985 2986 2987
3009 3006 3003 2999 2994 2990 2986 2981 2977 2973 2969 2966 2962 2960 2959 2958 2958 2957 2956 2956 2955 2955 2955 2956 2956 2957 2958 2959 2962 2965 2966 2967 2969 2971 2973 2976 2977 2978 2978 2979 2978 2979 2980
3008 3004 3001 2999 2995 2992 2989 2985 2980 2976 2973 2970 2967 2964 2962 2961 2961 2960 2960 2959 2958 2958 2958 2958 2959 2959 2960 2961 2962 2964 2965 2966 2967 2968 2969 2970 2971 2971 2971 2970 2970 2969 2969
3006 3003 3000 2997 2994 2990 2988 2986 2983 2980 2977 2973 2969 2966 2964 2963 2962 2960 2959 2959 2958 2958 2958 2958 2958 2958 2959 2960 2961 2962 2962 2962 2963 2963 2963 2963 2963 2963 2962 2961 2959 2958 2956
3004 3002 2999 2996 2993 2990 2987 2984 2982 2980 2977 2976 2973 2969 2966 2964 2961 2959 2958 2957 2956 2954 2954 2953 2953 2953 2953 2954 2955 2955 2955 2955 2955 2955 2954 2953 2953 2952 2950 2949 2947 2945 2942
3000 2999 2998 2995 2992 2989 2986 2983 2980 2978 2976 2974 2972 2970 2968 2966 2963 2961 2958 2956 2954 2953 2951 2949 2948 2948 2947 2947 2947 2946 2946 2946 2946 2945 2945 2944 2943 2942 2941 2939 2937 2934 2930
2995 2994 2993 2991 2990 2989 2986 2982 2980 2978 2976 2973 2970 2968 2966 2964 2961 2959 2957 2955 2952 2950 2948 2946 2945 2944 2943 2943 2942 2942 2941 2940 2940 2939 2938 2937 2935 2933 2932 2929 2926 2921 2916